| time (UTC) | temp F | wind direction | speed MPH | gust MPH | rain 1hr in | rain 24hr in | rain mn in | humidity % | barometer mb |
| 20260508034611 | 84 | 148 | 3.0 | 6.0 | 0.00 | 0.00 | 0.00 | 13 | 1006.7 |
| 20260508033058 | 85 | 230 | 1.0 | 6.0 | 0.00 | 0.00 | 0.00 | 13 | 1006.6 |
| 20260508031558 | 86 | 110 | 4.0 | 7.0 | 0.00 | 0.00 | 0.00 | 11 | 1006.4 |
| 20260508030059 | 87 | 134 | 3.0 | 5.0 | 0.00 | 0.00 | 0.00 | 11 | 1006.3 |
| 20260508024557 | 87 | 117 | 5.0 | 8.0 | 0.00 | 0.00 | 0.00 | 11 | 1006.1 |
| 20260508023157 | 88 | 108 | 3.0 | 8.0 | 0.00 | 0.00 | 0.00 | 10 | 1006.1 |
| 20260508021601 | 88 | 132 | 2.0 | 7.0 | 0.00 | 0.00 | 0.00 | 10 | 1006.0 |
| 20260508014559 | 88 | 57 | 1.0 | 6.0 | 0.00 | 0.00 | 0.00 | 11 | 1005.9 |
| 20260508013101 | 89 | 307 | 1.0 | 6.0 | 0.00 | 0.00 | 0.00 | 11 | 1006.0 |
| 20260508011604 | 90 | 16 | 3.0 | 8.0 | 0.00 | 0.00 | 0.00 | 10 | 1005.9 |
| 20260508010057 | 91 | 22 | 4.0 | 8.0 | 0.00 | 0.00 | 0.00 | 10 | 1006.0 |
| 20260508004558 | 92 | 5 | 0.0 | 3.0 | 0.00 | 0.00 | 0.00 | 9 | 1006.2 |
| 20260508003059 | 92 | 345 | 2.0 | 6.0 | 0.00 | 0.00 | 0.00 | 10 | 1006.2 |
| 20260508001622 | 91 | 15 | 2.0 | 9.0 | 0.00 | 0.00 | 0.00 | 10 | 1006.3 |
| 20260508000100 | 92 | 15 | 3.0 | 9.0 | 0.00 | 0.00 | 0.00 | 10 | 1006.5 |
| 20260507234557 | 92 | 123 | 3.0 | 8.0 | 0.00 | 0.00 | 0.00 | 10 | 1006.5 |
| 20260507233056 | 92 | 336 | 3.0 | 6.0 | 0.00 | 0.00 | 0.00 | 9 | 1006.6 |
| 20260507231557 | 94 | 307 | 2.0 | 5.0 | 0.00 | 0.00 | 0.00 | 9 | 1006.8 |
| 20260507230057 | 93 | 20 | 3.0 | 8.0 | 0.00 | 0.00 | 0.00 | 9 | 1007.0 |
| 20260507224601 | 94 | 16 | 2.0 | 4.0 | 0.00 | 0.00 | 0.00 | 9 | 1007.3 |
| 20260507223057 | 92 | 200 | 1.0 | 6.0 | 0.00 | 0.00 | 0.00 | 10 | 1007.5 |
| 20260507221558 | 92 | 21 | 4.0 | 10.0 | 0.00 | 0.00 | 0.00 | 10 | 1007.8 |
| 20260507220058 | 91 | 338 | 1.0 | 9.0 | 0.00 | 0.00 | 0.00 | 10 | 1008.2 |
| 20260507214607 | 92 | 113 | 2.0 | 6.0 | 0.00 | 0.00 | 0.00 | 10 | 1008.4 |
| 20260507213057 | 91 | 51 | 3.0 | 9.0 | 0.00 | 0.00 | 0.00 | 10 | 1008.9 |
| 20260507211659 | 90 | 5 | 2.0 | 5.0 | 0.00 | 0.00 | 0.00 | 11 | 1009.1 |
| 20260507210057 | 91 | 157 | 2.0 | 10.0 | 0.00 | 0.00 | 0.00 | 10 | 1009.4 |
| 20260507204600 | 92 | 309 | 1.0 | 6.0 | 0.00 | 0.00 | 0.00 | 10 | 1009.8 |
| 20260507203057 | 90 | 152 | 2.0 | 8.0 | 0.00 | 0.00 | 0.00 | 10 | 1010.1 |
| 20260507201600 | 90 | 5 | 4.0 | 8.0 | 0.00 | 0.00 | 0.00 | 11 | 1010.3 |
| 20260507200109 | 89 | 355 | 3.0 | 9.0 | 0.00 | 0.00 | 0.00 | 10 | 1010.5 |
| 20260507194558 | 89 | 355 | 2.0 | 8.0 | 0.00 | 0.00 | 0.00 | 11 | 1010.8 |
| 20260507193058 | 88 | 251 | 1.0 | 6.0 | 0.00 | 0.00 | 0.00 | 10 | 1010.9 |
| 20260507191559 | 88 | 5 | 3.0 | 7.0 | 0.00 | 0.00 | 0.00 | 10 | 1011.2 |
| 20260507190058 | 88 | 5 | 1.0 | 5.0 | 0.00 | 0.00 | 0.00 | 9 | 1011.7 |
| 20260507184605 | 85 | 338 | 2.0 | 6.0 | 0.00 | 0.00 | 0.00 | 10 | 1012.0 |
| 20260507183056 | 86 | 31 | 1.0 | 5.0 | 0.00 | 0.00 | 0.00 | 10 | 1012.1 |
| 20260507181604 | 85 | 17 | 2.0 | 5.0 | 0.00 | 0.00 | 0.00 | 10 | 1012.3 |
| 20260507180057 | 84 | 39 | 3.0 | 8.0 | 0.00 | 0.00 | 0.00 | 10 | 1012.5 |
| 20260507174609 | 82 | 44 | 1.0 | 5.0 | 0.00 | 0.00 | 0.00 | 10 | 1012.7 |
| 20260507173057 | 82 | 307 | 3.0 | 6.0 | 0.00 | 0.00 | 0.00 | 10 | 1012.8 |
| 20260507171603 | 81 | 10 | 4.0 | 9.0 | 0.00 | 0.00 | 0.00 | 11 | 1012.8 |
| 20260507170058 | 80 | 355 | 3.0 | 6.0 | 0.00 | 0.00 | 0.00 | 12 | 1013.0 |
| 20260507164557 | 79 | 348 | 2.0 | 6.0 | 0.00 | 0.00 | 0.00 | 12 | 1013.2 |
| 20260507163057 | 79 | 355 | 4.0 | 8.0 | 0.00 | 0.00 | 0.00 | 13 | 1013.2 |
| 20260507161557 | 77 | 5 | 2.0 | 5.0 | 0.00 | 0.00 | 0.00 | 13 | 1013.4 |
| 20260507160056 | 76 | 11 | 1.0 | 4.0 | 0.00 | 0.00 | 0.00 | 14 | 1013.4 |
| 20260507154603 | 76 | 318 | 3.0 | 5.0 | 0.00 | 0.00 | 0.00 | 14 | 1013.5 |
| 20260507153101 | 75 | 11 | 1.0 | 2.0 | 0.00 | 0.00 | 0.00 | 17 | 1013.5 |
| 20260507151557 | 74 | 265 | 1.0 | 3.0 | 0.00 | 0.00 | 0.00 | 18 | 1013.6 |
| 20260507150056 | 73 | 183 | 0.0 | 2.0 | 0.00 | 0.00 | 0.00 | 18 | 1013.7 |
| 20260507144557 | 71 | 130 | 0.0 | 2.0 | 0.00 | 0.00 | 0.00 | 19 | 1013.6 |
| 20260507143056 | 70 | 27 | 0.0 | 2.0 | 0.00 | 0.00 | 0.00 | 22 | 1013.7 |
| 20260507141556 | 67 | 335 | 1.0 | 3.0 | 0.00 | 0.00 | 0.00 | 23 | 1013.7 |
| 20260507140055 | 65 | 343 | 1.0 | 3.0 | 0.00 | 0.00 | 0.00 | 24 | 1013.7 |
| 20260507134557 | 63 | 324 | 1.0 | 3.0 | 0.00 | 0.00 | 0.00 | 26 | 1013.6 |
| 20260507133057 | 62 | 15 | 1.0 | 3.0 | 0.00 | 0.00 | 0.00 | 27 | 1013.4 |
| 20260507131602 | 62 | 9 | 2.0 | 3.0 | 0.00 | 0.00 | 0.00 | 27 | 1013.3 |
| 20260507130108 | 61 | 355 | 0.0 | 2.0 | 0.00 | 0.00 | 0.00 | 27 | 1013.1 |
| 20260507124556 | 61 | 360 | 1.0 | 4.0 | 0.00 | 0.00 | 0.00 | 27 | 1013.0 |
| 20260507123056 | 62 | 92 | 1.0 | 3.0 | 0.00 | 0.00 | 0.00 | 27 | 1012.9 |
| 20260507121606 | 62 | 100 | 1.0 | 3.0 | 0.00 | 0.00 | 0.00 | 27 | 1012.9 |
| 20260507120100 | 63 | 92 | 2.0 | 3.0 | 0.00 | 0.00 | 0.00 | 26 | 1012.9 |
| 20260507114613 | 64 | 59 | 0.0 | 2.0 | 0.00 | 0.00 | 0.00 | 26 | 1012.8 |
| 20260507113058 | 64 | 138 | 1.0 | 4.0 | 0.00 | 0.00 | 0.00 | 26 | 1012.8 |
| 20260507111603 | 65 | 140 | 0.0 | 2.0 | 0.00 | 0.00 | 0.00 | 27 | 1012.8 |
| 20260507110109 | 66 | 121 | 2.0 | 4.0 | 0.00 | 0.00 | 0.00 | 27 | 1012.9 |
| 20260507104556 | 66 | 138 | 3.0 | 5.0 | 0.00 | 0.00 | 0.00 | 27 | 1012.9 |
| 20260507103056 | 66 | 138 | 2.0 | 4.0 | 0.00 | 0.00 | 0.00 | 28 | 1012.8 |
| 20260507101604 | 66 | 130 | 3.0 | 7.0 | 0.00 | 0.00 | 0.00 | 28 | 1012.7 |
| 20260507100056 | 65 | 142 | 2.0 | 4.0 | 0.00 | 0.00 | 0.00 | 28 | 1012.7 |
| 20260507094556 | 65 | 138 | 0.0 | 3.0 | 0.00 | 0.00 | 0.00 | 27 | 1012.7 |
| 20260507093058 | 66 | 132 | 0.0 | 2.0 | 0.00 | 0.00 | 0.00 | 26 | 1012.8 |
| 20260507091558 | 67 | 125 | 0.0 | 2.0 | 0.00 | 0.00 | 0.00 | 25 | 1012.8 |
| 20260507090057 | 67 | 226 | 0.0 | 2.0 | 0.00 | 0.00 | 0.00 | 26 | 1012.8 |
| 20260507084556 | 68 | 111 | 0.0 | 2.0 | 0.00 | 0.00 | 0.00 | 26 | 1012.8 |
| 20260507083057 | 68 | 111 | 0.0 | 2.0 | 0.00 | 0.00 | 0.00 | 25 | 1012.7 |
| 20260507081603 | 69 | 111 | 0.0 | 1.0 | 0.00 | 0.00 | 0.00 | 25 | 1012.9 |
| 20260507080057 | 71 | 254 | 0.0 | 2.0 | 0.00 | 0.00 | 0.00 | 25 | 1012.8 |
| 20260507074609 | 71 | 11 | 0.0 | 6.0 | 0.00 | 0.00 | 0.00 | 25 | 1012.8 |
| 20260507073056 | 70 | 355 | 2.0 | 4.0 | 0.00 | 0.00 | 0.00 | 26 | 1012.5 |
| 20260507071559 | 71 | 103 | 1.0 | 3.0 | 0.00 | 0.00 | 0.00 | 23 | 1012.3 |
| 20260507070057 | 71 | 138 | 2.0 | 4.0 | 0.00 | 0.00 | 0.00 | 23 | 1012.3 |
| 20260507064559 | 71 | 132 | 2.0 | 6.0 | 0.00 | 0.00 | 0.00 | 24 | 1012.2 |
| 20260507063059 | 72 | 190 | 1.0 | 3.0 | 0.00 | 0.00 | 0.00 | 24 | 1012.1 |
| 20260507061606 | 73 | 246 | 1.0 | 5.0 | 0.00 | 0.00 | 0.00 | 22 | 1011.9 |
| 20260507060059 | 74 | 99 | 3.0 | 6.0 | 0.00 | 0.00 | 0.00 | 21 | 1011.8 |
| 20260507060001 | 74 | 109 | 2.0 | 4.0 | 0.00 | 0.00 | 0.00 | 21 | 1011.7 |
| 20260507054638 | 74 | 153 | 2.0 | 6.0 | 0.00 | 0.00 | 0.00 | 20 | 1011.7 |
| 20260507053100 | 75 | 152 | 3.0 | 6.0 | 0.00 | 0.00 | 0.00 | 20 | 1011.5 |
| 20260507051559 | 75 | 138 | 3.0 | 5.0 | 0.00 | 0.00 | 0.00 | 20 | 1011.4 |
| 20260507050100 | 75 | 147 | 2.0 | 4.0 | 0.00 | 0.00 | 0.00 | 20 | 1011.4 |
| 20260507044602 | 76 | 161 | 3.0 | 5.0 | 0.00 | 0.00 | 0.00 | 20 | 1011.3 |
| 20260507043057 | 76 | 153 | 3.0 | 4.0 | 0.00 | 0.00 | 0.00 | 20 | 1011.2 |
| 20260507041603 | 77 | 147 | 3.0 | 5.0 | 0.00 | 0.00 | 0.00 | 19 | 1011.2 |
| 20260507040058 | 78 | 179 | 1.0 | 4.0 | 0.00 | 0.00 | 0.00 | 19 | 1011.0 |